[[{"header":{"parameterUnit":"m.s-1","parameterCategory":1,"la1":30.2991,"la2":30.254,"lo1":-89.0895,"lo2":-89.0444,"dy":0.0017,"dx":0.0017,"nx":28,"ny":28,"refTime":"2024-03-26T03:00:00:Z","depth":0,"parameterNumber":2,"parameterNumberName":"U-component_of_WINDS"},"data":[0,0,0,0,0,0,0,0,0,0,0,0,0,0,0,0,0,0,0,0,0,0,0,0,0,0,0,0,0,0,0,0,0,0,0,0,0,0,0,0,0,0,0,0,0,0,0,0,0,0,0,0,0,0,0,0,0,0,0.0398,0.0398,0,0.0396,0.0396,0.0396,0.0426,0.0427,0.0428,0.0428,0.0426,0.0426,0.0425,0,0,0,0,0,0,0,0,0,0,0,0,0,0.0424,0.0424,0.0398,0.0398,0.0397,0.0396,0.0396,0.0396,0.0426,0.0427,0.0428,0.0429,0.0427,0.0426,0.0425,0,0,0,0,0,0,0,0,0,0,0,0,0,0.0417,0.0423,0.0398,0.0412,0.0413,0.0396,0.0396,0.0396,0.0426,0.0427,0.0428,0.0429,0.0427,0.0426,0.0425,0.0393,0,0,0.0421,0.0421,0,0,0,0,0,0,0,0,0.0417,0.0416,0.041,0.0411,0.0413,0.0413,0.0405,0.0395,0.0425,0.0421,0.0428,0.043,0.0421,0.042,0.0417,0.0393,0.0393,0.0421,0.042,0.042,0.0419,0,0,0,0,0,0,0,0.0418,0.0416,0.0397,0.041,0.0411,0.0418,0.0419,0.0403,0.0414,0.0421,0.0424,0.0423,0.0422,0.0418,0.0418,0.0393,0.0421,0.042,0.0419,0.0419,0.0342,0.0341,0,0,0,0,0,0,0.0416,0.0416,0.0397,0.0397,0.0418,0.0417,0.0417,0.0411,0.0414,0.0416,0.0422,0.0425,0.042,0.0419,0.0418,0.038,0.042,0.0419,0.0418,0.0344,0.0342,0.0341,0,0,0,0,0,0,0.0417,0.0414,0.0397,0.0407,0.0406,0.0415,0.0408,0.0411,0.0407,0.0415,0.0417,0.0417,0.0421,0.0419,0.0399,0.038,0.0418,0.0417,0.0345,0.0343,0.0341,0.0305,0,0,0,0,0,0,0.0417,0.0414,0.0403,0.0407,0.0405,0.0379,0.0407,0.041,0.0405,0.0409,0.041,0.0412,0.0422,0.0401,0.0398,0.0379,0.0416,0.0347,0.0344,0.0342,0.0308,0.0302,0.0297,0,0,0,0,0,0.0418,0.0393,0.0402,0.04,0.0391,0.0378,0.0377,0.0388,0.0404,0.0392,0.0397,0.0412,0.0383,0.0398,0.0395,0.0376,0.0348,0.0345,0.0342,0.0311,0.0304,0.0298,0,0,0,0,0,0,0.0386,0.0394,0.0404,0.0379,0.0377,0.0383,0.0368,0.0381,0.0375,0.0378,0.0393,0.0393,0.037,0.0371,0.0388,0.0346,0.0368,0.0365,0.0345,0.0339,0.0333,0.0333,0.0415,0,0,0,0,0,0.0377,0.0365,0.0372,0.035,0.0348,0.0358,0.0353,0.0362,0.0361,0.0361,0.0364,0.0362,0.0353,0.0346,0.0338,0.0309,0.0309,0.0295,0.0289,0.0285,0.0281,0.0265,0.0258,0.0331,0.0331,0.0331,0,0,0.0356,0.0358,0.0351,0.0343,0.0343,0.0331,0.0358,0.0344,0.0335,0.0359,0.0339,0.0342,0.0341,0.0315,0.0305,0.0316,0.0261,0.0281,0.0277,0.0276,0.0261,0.0254,0.0248,0.0329,0.0329,0.033,0,0,0.0312,0.0313,0.0294,0.0293,0.0292,0.0299,0.0294,0.0297,0.03,0.0281,0.0298,0.0288,0.0271,0.0269,0.0266,0.0221,0.0234,0.0218,0.0189,0.0173,0.0167,0.0162,0.0144,0.0138,0.0214,0.0214,0.0214,0,0.0286,0.0268,0.0282,0.0267,0.0262,0.0284,0.0264,0.0263,0.0259,0.0256,0.0269,0.0248,0.0249,0.0223,0.0212,0.0209,0.0203,0.0217,0.0167,0.0162,0.0157,0.0141,0.0134,0.0212,0.0212,0.0213,0.0213,0,0.0236,0.0223,0.0208,0.0203,0.0198,0.018,0.0191,0.0184,0.0193,0.0198,0.0178,0.018,0.0172,0.0167,0.0177,0.0142,0.0149,0.0164,0.0187,0.0148,0.0132,0.0126,0.0209,0.021,0.0211,0.0211,0,0,0.0171,0.0174,0.0168,0.0166,0.0167,0.0157,0.0141,0.0133,0.0125,0.0123,0.0108,0.0094,0.0107,0.0104,0.0113,0.0099,0.0062,0.0116,0.0116,0.0105,0.0022,0.001,0.0002,0.0071,0.007,0.0069,0.0022,0,0.0126,0.0098,0.0109,0.0079,0.0067,0.0087,0.0073,0.0071,0.0076,0.0066,0.0071,0.006,0.008,0.0077,0.0065,0.0069,0.0045,0.0073,0.0056,0.0056,0.0054,-0.0006,-0.0019,-0.0064,0.0016,0.0015,0.0014,0,0.0071,0.0065,0.0034,0.0036,0.0031,0.0018,0.0011,0.0002,0.0,0.0004,-0.0,0.0013,-0.0004,0.0019,-0.0005,0.0014,0.0008,0.0009,0.0008,0.0006,0.0031,-0.0011,-0.0077,-0.0085,0.0005,0.0006,0.0007,0,0.0025,0.0009,-0.0012,-0.0014,-0.0012,-0.0022,-0.0022,-0.0022,-0.0027,-0.0033,-0.0037,-0.0045,-0.0049,-0.0056,-0.0046,-0.0029,-0.0071,-0.0046,-0.0069,-0.007,-0.008,-0.008,-0.015,-0.0082,-0.0081,-0.0081,-0.0081,0,-0.0027,-0.0047,-0.0033,-0.0046,-0.0068,-0.0055,-0.0077,-0.0075,-0.0075,-0.0088,-0.007,-0.0083,-0.0068,-0.0079,-0.0071,-0.0093,-0.0095,-0.0092,-0.009,-0.0095,-0.0096,-0.01,-0.0097,-0.0083,-0.0083,-0.0082,-0.0082,0,-0.0083,-0.0074,-0.0096,-0.0092,-0.0091,-0.0108,-0.0105,-0.0118,-0.0112,-0.0128,-0.0131,-0.0123,-0.0135,-0.0125,-0.0137,-0.0132,-0.0161,-0.0154,-0.0161,-0.0159,-0.0183,-0.0182,-0.026,-0.027,-0.0193,-0.0194,-0.0195,0,-0.0117,-0.0132,-0.013,-0.0138,-0.0139,-0.015,-0.0156,-0.0143,-0.015,-0.0153,-0.0166,-0.0176,-0.0184,-0.0205,-0.02,-0.0209,-0.0203,-0.0229,-0.0204,-0.0209,-0.0205,-0.0205,-0.0207,-0.0235,-0.0236,-0.0237,-0.0237,0,-0.0179,-0.0174,-0.0183,-0.0192,-0.0199,-0.0205,-0.0209,-0.0216,-0.0203,-0.0212,-0.0224,-0.023,-0.0243,-0.0254,-0.0261,-0.0261,-0.0248,-0.0245,-0.0251,-0.0257,-0.0261,-0.026,-0.0176,-0.0244,-0.0243,-0.0243,-0.0242,-0.0242,-0.0226,-0.0239,-0.0241,-0.0252,-0.0254,-0.0258,-0.027,-0.0266,-0.0276,-0.0285,-0.0277,-0.0292,-0.0294,-0.0302,-0.0304,-0.0316,-0.0305,-0.0313,-0.0316,-0.0319,-0.0323,-0.0258,-0.0317,-0.0317,-0.0317,-0.0316,-0.0316,0,-0.0289,-0.0289,-0.0299,-0.0306,-0.0315,-0.0301,-0.0305,-0.0314,-0.0327,-0.033,-0.0338,-0.0353,-0.0364,-0.036,-0.037,-0.038,-0.0374,-0.0383,-0.0383,-0.0384,-0.0331,-0.0326,-0.0388,-0.0388,-0.0388,-0.0388,-0.0388,-0.0388,-0.0322,-0.0345,-0.034,-0.0363,-0.0362,-0.0378,-0.0381,-0.0386,-0.0388,-0.0405,-0.0415,-0.0412,-0.0412,-0.0422,-0.0431,-0.043,-0.0435,-0.0447,-0.0443,-0.0394,-0.0387,-0.0381,-0.0375,-0.0447,-0.0447,-0.0495,-0.0495,-0.0496]},{"header":{"parameterUnit":"m.s-1","parameterCategory":1,"la1":30.2991,"la2":30.254,"lo1":-89.0895,"lo2":-89.0444,"dy":0.0017,"dx":0.0017,"nx":28,"ny":28,"refTime":"2024-03-26T03:00:00:Z","depth":0,"parameterNumber":3,"parameterNumberName":"V-component_of_WINDS"},"data":[0,0,0,0,0,0,0,0,0,0,0,0,0,0,0,0,0,0,0,0,0,0,0,0,0,0,0,0,0,0,0,0,0,0,0,0,0,0,0,0,0,0,0,0,0,0,0,0,0,0,0,0,0,0,0,0,0,0,-2.8601,-2.8603,0,-2.8764,-2.8766,-2.8768,-2.8783,-2.8782,-2.878,-2.8778,-2.8943,-2.8949,-2.8955,0,0,0,0,0,0,0,0,0,0,0,0,0,-2.8301,-2.8307,-2.8601,-2.8603,-2.8605,-2.8764,-2.8766,-2.8768,-2.8784,-2.8782,-2.878,-2.8778,-2.8941,-2.8948,-2.8955,0,0,0,0,0,0,0,0,0,0,0,0,0,-2.8445,-2.8309,-2.86,-2.8632,-2.8636,-2.8763,-2.8766,-2.8769,-2.8784,-2.8782,-2.8779,-2.8777,-2.8939,-2.8947,-2.8956,-2.9062,0,0,-2.8984,-2.8987,0,0,0,0,0,0,0,0,-2.8436,-2.8456,-2.8625,-2.863,-2.8635,-2.8751,-2.8721,-2.8867,-2.8785,-2.8728,-2.8778,-2.8775,-2.8881,-2.8894,-2.8931,-2.907,-2.9077,-2.8984,-2.899,-2.8994,-2.8996,0,0,0,0,0,0,0,-2.8426,-2.8449,-2.8665,-2.8628,-2.8634,-2.8637,-2.8655,-2.8749,-2.8817,-2.8733,-2.8734,-2.8753,-2.8883,-2.8922,-2.8935,-2.908,-2.8984,-2.8992,-2.8998,-2.9001,-2.9316,-2.9319,0,0,0,0,0,0,-2.8411,-2.844,-2.866,-2.867,-2.8528,-2.8645,-2.8664,-2.8716,-2.8816,-2.8828,-2.8755,-2.8754,-2.8908,-2.8924,-2.894,-2.9073,-2.8994,-2.9002,-2.9007,-2.9313,-2.9317,-2.932,0,0,0,0,0,0,-2.8404,-2.843,-2.8653,-2.8556,-2.8584,-2.8653,-2.8711,-2.8721,-2.876,-2.8833,-2.8845,-2.8783,-2.8907,-2.8928,-2.9033,-2.9079,-2.9006,-2.9014,-2.931,-2.9314,-2.9318,-2.9337,0,0,0,0,0,0,-2.8396,-2.8428,-2.8469,-2.8557,-2.859,-2.8743,-2.8713,-2.8726,-2.8775,-2.8774,-2.8862,-2.8874,-2.8906,-2.9019,-2.9041,-2.909,-2.9021,-2.9306,-2.9312,-2.9317,-2.9333,-2.9342,-2.9349,0,0,0,0,0,-2.8385,-2.8467,-2.8471,-2.8498,-2.8643,-2.8746,-2.8765,-2.8801,-2.8779,-2.8821,-2.8868,-2.8871,-2.907,-2.903,-2.9055,-2.9107,-2.9303,-2.931,-2.9317,-2.9329,-2.934,-2.9349,0,0,0,0,0,0,-2.8382,-2.8479,-2.8485,-2.8597,-2.8664,-2.8748,-2.8802,-2.8811,-2.8884,-2.888,-2.8922,-2.8941,-2.9045,-2.9086,-2.904,-2.9215,-2.9184,-2.9196,-2.9185,-2.9196,-2.9204,-2.9192,-2.9029,0,0,0,0,0,-2.8395,-2.8471,-2.8551,-2.8643,-2.8676,-2.8733,-2.878,-2.8802,-2.8872,-2.89,-2.8955,-2.9022,-2.91,-2.915,-2.9225,-2.9339,-2.9358,-2.9387,-2.9395,-2.9401,-2.9412,-2.9476,-2.949,-2.9342,-2.9342,-2.9342,0,0,-2.8421,-2.8483,-2.8529,-2.8644,-2.8698,-2.8776,-2.8757,-2.884,-2.8898,-2.8912,-2.9015,-2.9058,-2.9135,-2.9245,-2.9296,-2.9283,-2.9457,-2.941,-2.9415,-2.9422,-2.9484,-2.9498,-2.9511,-2.9347,-2.9346,-2.9345,0,0,-2.8509,-2.8564,-2.8647,-2.8702,-2.8784,-2.8823,-2.8842,-2.8927,-2.8956,-2.906,-2.9073,-2.9143,-2.9275,-2.9331,-2.9376,-2.9487,-2.9493,-2.9511,-2.9554,-2.9617,-2.9629,-2.9639,-2.968,-2.9694,-2.952,-2.952,-2.952,0,-2.8532,-2.8651,-2.8689,-2.8772,-2.8823,-2.8841,-2.8926,-2.8976,-2.9079,-2.9113,-2.9097,-2.9265,-2.9318,-2.9442,-2.947,-2.9505,-2.953,-2.9501,-2.9624,-2.9635,-2.9645,-2.9685,-2.97,-2.9522,-2.9522,-2.9522,-2.9522,0,-2.8675,-2.8757,-2.8814,-2.8914,-2.8971,-2.9055,-2.9106,-2.9159,-2.9177,-2.9216,-2.9323,-2.9388,-2.9477,-2.9508,-2.9526,-2.9635,-2.9625,-2.9615,-2.9585,-2.966,-2.9698,-2.9714,-2.9525,-2.9524,-2.9523,-2.9523,0,0,-2.8765,-2.8887,-2.8907,-2.8954,-2.9046,-2.9111,-2.9195,-2.9284,-2.933,-2.9399,-2.9472,-2.9585,-2.9578,-2.9629,-2.9653,-2.9708,-2.9794,-2.9692,-2.9695,-2.971,-2.992,-2.9927,-2.9944,-2.9798,-2.9801,-2.9803,-2.9914,0,-2.8865,-2.9018,-2.9055,-2.9185,-2.9263,-2.9281,-2.9355,-2.942,-2.9459,-2.953,-2.9573,-2.9654,-2.9637,-2.9669,-2.9724,-2.9772,-2.9837,-2.9764,-2.9866,-2.9869,-2.9847,-2.9964,-2.9971,-3.0073,-2.9929,-2.9931,-2.9933,0,-2.9002,-2.9077,-2.9216,-2.93,-2.9334,-2.94,-2.9485,-2.9553,-2.9627,-2.9652,-2.971,-2.9729,-2.9818,-2.9783,-2.9907,-2.9857,-2.9901,-2.993,-2.9935,-2.9947,-2.9906,-2.9979,-3.0106,-3.0121,-2.9957,-2.9955,-2.9953,0,-2.9056,-2.9192,-2.9292,-2.9331,-2.9432,-2.9478,-2.9522,-2.9594,-2.9645,-2.972,-2.9754,-2.9837,-2.9883,-2.9947,-2.9988,-2.9958,-3.0109,-3.0076,-3.0132,-3.0131,-3.0164,-3.0161,-3.03,-3.019,-3.019,-3.019,-3.0189,0,-2.9165,-2.9249,-2.9318,-2.938,-2.9476,-2.9518,-2.9611,-2.9655,-2.9719,-2.979,-2.981,-2.9876,-2.9926,-2.9999,-3.0031,-3.0129,-3.0149,-3.0172,-3.018,-3.0172,-3.0169,-3.0201,-3.0196,-3.0194,-3.0193,-3.0192,-3.0191,0,-2.9242,-2.9291,-2.9403,-2.9489,-2.9513,-2.9579,-2.9654,-2.9715,-2.9755,-2.9845,-2.9868,-2.9932,-3.0019,-3.0066,-3.0174,-3.0196,-3.0307,-3.031,-3.0282,-3.0286,-3.034,-3.0335,-3.0505,-3.053,-3.0402,-3.0404,-3.0405,0,-2.9308,-2.9374,-2.9468,-2.9517,-2.9563,-2.9642,-2.9695,-2.9739,-2.9794,-2.9884,-2.9935,-3.0023,-3.0096,-3.0235,-3.029,-3.0374,-3.038,-3.0434,-3.0393,-3.0382,-3.0383,-3.0379,-3.0386,-3.0441,-3.0443,-3.0444,-3.0444,0,-2.9421,-2.9443,-2.9519,-2.9606,-2.9669,-2.9738,-2.9807,-2.9846,-2.9902,-2.9962,-3.0052,-3.0109,-3.0221,-3.0309,-3.0397,-3.0442,-3.0453,-3.0457,-3.0475,-3.0467,-3.0449,-3.0461,-3.0303,-3.0453,-3.0452,-3.0451,-3.0451,-3.0451,-2.9496,-2.9556,-2.9632,-2.9717,-2.9774,-2.9838,-2.99,-2.9949,-3.0025,-3.0121,-3.0142,-3.0237,-3.0311,-3.0431,-3.0478,-3.0553,-3.0543,-3.0568,-3.0574,-3.058,-3.0583,-3.0436,-3.0569,-3.0569,-3.0569,-3.0569,-3.0568,0,-2.9611,-2.9662,-2.9739,-2.9836,-2.9903,-2.9908,-2.9985,-3.0041,-3.0125,-3.0193,-3.0265,-3.0369,-3.0455,-3.0518,-3.0605,-3.0653,-3.0661,-3.0675,-3.0672,-3.0683,-3.0587,-3.0564,-3.0668,-3.0668,-3.0668,-3.0668,-3.0668,-3.0668,-2.9679,-2.9781,-2.9812,-2.9943,-2.9993,-3.0087,-3.0131,-3.019,-3.0245,-3.0361,-3.0433,-3.0474,-3.054,-3.0633,-3.0712,-3.0728,-3.076,-3.0774,-3.0791,-3.07,-3.0689,-3.0679,-3.0658,-3.078,-3.078,-3.0881,-3.0882,-3.0883]}]]